Погода в Магарамкенте

Россия / Республика Дагестан     41°37′03″N   48°20′53″E
темп.,
°C
ветер,
м/с
пор.,
м/с
влажн.,
%
обл.,
%
осадки,
мм/ч
давл.,
гПа
погр.,
м
6 марта, сб
сб600:00+2юз33340 0.0 102036
03:00+3юз33280 0.0 102038
06:00+3юз33250 0.0 102034
09:00+9юв01230 0.0 1020179
12:00+11в22260 0.0 1018473
15:00+11в22410 0.0 1015357
18:00+7зюз01650 0.0 101522
21:00+7зюз343447 0.0 101360
7 марта, вс
вс700:00+6зюз6729100 0.0 101178
03:00+6зюз793190 0.0 1010104
06:00+5зюз443698 0.0 101145
09:00+2ссв468299 0.0 1015599
12:00−2ссв4894100 1.4 1017630
15:00−2ссв4693100 4.1 1019541
18:00−4ссв1384100 0.8 1021256
21:00−5вюв118399 0.9 102352
8 марта, пн
пн800:00−5ююз228059 0.0 102361
03:00−5ю117730 0.0 102323
06:00−5вюв11812 0.0 102340
09:00−3вюв338221 0.0 1022509
12:00−2в338897 0.1 1019387
15:00−1в349498 0.3 1017305
18:00−2всв2398100 0.3 1016177
21:00−2ссв1198100 0.9 1016105
9 марта, вт
вт900:00−2ссз2298100 0.9 1016138
03:00−2зсз1197100 3.3 101698
06:00−3с1398100 0.6 1017215
09:00−2ссв2398100 1.6 1017348
12:00−2ссв2297100 0.4 1017259
15:00−1св218798 0.5 1017392
18:00−2всв229494 0.1 1018122
21:00−3юз128591 0.1 102136
10 марта, ср
ср1000:00−3юз23690 0.0 102126
03:00−3зюз33610 0.0 102126
06:00−4з33600 0.0 102228
09:00−2вюв009218 0.2 1023183
12:00−2св449898 0.9 1022403
15:00−2всв339899 2.1 1021273
18:00−3св2298100 1.4 1021183
21:00−3з119699 2.3 102184